Torna al catalogo

STARLINK-37396

AttivoComunicazioniVLEO
NORAD 69256·PAYLOAD·🇺🇸 United States

Lanciato May 30, 2026 da Cape Canaveral Space Force Station

Loading…

Prossimi Passaggi (prossime 24 ore)

TLE

AggiornatoSource: CelesTrak SupGP

Epoca: Sep 14, 2026, 22:58 UTC

1 69256C 26117U   26257.95743056 -.00072298  00000+0 -21355-2 0  2570
2 69256  53.1581 179.3182 0001366  94.7311 154.5088 15.34434409    14

Traccia STARLINK-37396 in tempo reale con AllMySat

Download on the App Store